Escatawpa, MS

1:30 PM CDT on September 29, 2016 (GMT -0500)
Lott International

Weather History for KPQL - March, 2014

Change the Weather History Date:

Thursday, March 6, 2014

  Actual Average Record
Temperature  
Mean Temperature 52 °F -  
Max Temperature 57 °F 66 °F 80 °F (2006)
Min Temperature 46 °F 47 °F 28 °F (1960)
Degree Days  
Heating Degree Days 14    
Growing Degree Days 2 (Base 50)    
Moisture  
Dew Point 50 °F    
Average Humidity 93    
Maximum Humidity 100    
Minimum Humidity 78    
Precipitation  
Precipitation 0.34 in - - ()
Sea Level Pressure  
Sea Level Pressure 29.95 in    
Wind  
Wind Speed 6 mph (North)    
Max Wind Speed 13 mph    
Max Gust Speed 20 mph    
Visibility 7 miles    
Events Rain    
Averages and records for this station are not official NWS values.
T = Trace of Precipitation, MM = Missing Value Source: NWS Daily Summary

Daily Weather History Graph

Daily Weather History Graph

Search for Another Location

Airport or City:

Trip Planner

Search our weather history database for the weather conditions in past years. The results will help you decide how hot, cold, wet, or windy it might be!

Date:

Astronomy

Mar. 06, 2014 Rise Set
Actual Time 6:14 AM CST 5:56 PM CST
Civil Twilight 5:50 AM CST 6:20 PM CST
Nautical Twilight 5:22 AM CST 6:48 PM CST
Astronomical Twilight 4:54 AM CST 7:16 PM CST
Moon 9:45 AM CST (3/6) 11:37 PM CST (3/6)
Length of Visible Light 12h 29m
Length of Day
11h 41m
Waxing Crescent, 32% of the Moon is Illuminated
Mar 6
Waxing Crescent
Mar 8
First Quarter
Mar 16
Full
Mar 23
Last Quarter
Mar 30
New

Hourly Weather History & Observations

Time (CST) Temp. Windchill Dew Point Humidity Pressure Visibility Wind Dir Wind Speed Gust Speed Precip Events Conditions
12:53 AM 51.1 °F - 50.0 °F 96% 29.97 in 7.0 mi ENE 6.9 mph - 0.07 in Rain Light Rain
1:53 AM 52.0 °F - 50.0 °F 93% 29.97 in 10.0 mi East 5.8 mph - 0.00 in   Overcast
2:43 AM 52.0 °F - 50.0 °F 93% 29.95 in 10.0 mi Variable 4.6 mph - 0.00 in Rain Light Rain
2:53 AM 52.0 °F - 50.0 °F 93% 29.96 in 10.0 mi East 3.5 mph - 0.00 in   Overcast
3:23 AM 51.1 °F - 51.1 °F 100% 29.97 in 2.0 mi Calm Calm - 0.06 in Rain Heavy Rain
3:53 AM 51.1 °F - 50.0 °F 96% 29.91 in 4.0 mi East 10.4 mph - 0.14 in Rain Rain
4:23 AM 51.1 °F - 51.1 °F 100% 29.94 in 9.0 mi West 4.6 mph - 0.01 in   Overcast
4:53 AM 51.1 °F - 51.1 °F 100% 29.92 in 8.0 mi NNW 5.8 mph - 0.01 in   Overcast
5:09 AM 52.0 °F - 51.1 °F 97% 29.91 in 8.0 mi North 4.6 mph - N/A   Overcast
5:29 AM 52.0 °F - 51.1 °F 97% 29.93 in 9.0 mi ENE 4.6 mph - N/A   Overcast
5:53 AM 52.0 °F - 51.1 °F 97% 29.94 in 10.0 mi Calm Calm - N/A   Overcast
6:15 AM 52.0 °F - 50.0 °F 93% 29.95 in 9.0 mi NNW 3.5 mph - N/A   Overcast
6:53 AM 51.1 °F - 50.0 °F 96% 29.97 in 4.0 mi NNW 4.6 mph - 0.00 in Rain Light Rain
7:09 AM 51.1 °F - 51.1 °F 100% 29.97 in 2.0 mi NW 3.5 mph - 0.00 in Rain Light Rain
7:16 AM 51.1 °F - 51.1 °F 100% 29.97 in 1.8 mi NW 4.6 mph - 0.00 in Rain Light Rain
7:24 AM 51.1 °F - 51.1 °F 100% 29.97 in 1.5 mi NW 3.5 mph - 0.00 in Rain Light Rain
7:32 AM 52.0 °F - 51.1 °F 97% 29.97 in 2.0 mi NW 4.6 mph - 0.00 in Rain Light Rain
7:44 AM 51.1 °F - 51.1 °F 100% 29.97 in 1.8 mi NW 3.5 mph - 0.00 in Rain Light Rain
7:53 AM 51.1 °F - 51.1 °F 100% 29.98 in 1.8 mi NNW 5.8 mph - 0.00 in Rain Light Rain
8:01 AM 52.0 °F - 51.1 °F 97% 29.97 in 2.5 mi NNW 4.6 mph - 0.00 in   Overcast
8:12 AM 52.0 °F - 51.1 °F 97% 29.98 in 3.0 mi NW 3.5 mph - 0.00 in   Overcast
8:53 AM 52.0 °F - 51.1 °F 97% 29.99 in 5.0 mi North 6.9 mph - 0.00 in   Overcast
9:50 AM 55.4 °F - 53.6 °F 94% 29.96 in 8.0 mi North 4.6 mph - N/A   Overcast
9:53 AM 55.0 °F - 53.1 °F 93% 29.97 in 8.0 mi North 5.8 mph - N/A   Overcast
10:53 AM 55.0 °F - 52.0 °F 89% 29.96 in 9.0 mi North 8.1 mph - N/A   Overcast
11:53 AM 55.9 °F - 52.0 °F 87% 29.94 in 10.0 mi North 10.4 mph - N/A   Overcast
12:20 PM 55.9 °F - 52.0 °F 87% 29.93 in 10.0 mi North 9.2 mph - N/A   Overcast
12:53 PM 57.9 °F - 52.0 °F 81% 29.93 in 10.0 mi North 8.1 mph - N/A   Overcast
1:42 PM 57.9 °F - 51.1 °F 78% 29.91 in 10.0 mi North 10.4 mph - N/A   Overcast
1:53 PM 57.9 °F - 51.1 °F 78% 29.91 in 10.0 mi North 10.4 mph - N/A   Overcast
2:53 PM 55.9 °F - 51.1 °F 84% 29.91 in 8.0 mi North 9.2 mph - N/A   Overcast
3:03 PM 55.9 °F - 51.1 °F 84% 29.90 in 6.0 mi North 8.1 mph - N/A   Haze
3:19 PM 54.0 °F - 51.1 °F 90% 29.90 in 5.0 mi North 10.4 mph - 0.00 in Rain Light Rain
3:40 PM 53.1 °F - 51.1 °F 93% 29.90 in 2.5 mi North 10.4 mph 18.4 mph 0.03 in Rain Heavy Rain
3:53 PM 53.1 °F - 51.1 °F 93% 29.91 in 4.0 mi North 9.2 mph - 0.06 in Rain Light Rain
4:16 PM 53.1 °F - 52.0 °F 96% 29.90 in 9.0 mi NNW 6.9 mph - 0.00 in Rain Light Rain
4:40 PM 53.1 °F - 51.1 °F 93% 29.90 in 10.0 mi NNW 4.6 mph - 0.00 in   Overcast
4:53 PM 53.1 °F - 51.1 °F 93% 29.91 in 10.0 mi NNW 5.8 mph - 0.00 in   Overcast
5:40 PM 52.0 °F - 50.0 °F 93% 29.93 in 6.0 mi NNW 4.6 mph - 0.01 in Rain Light Rain
5:51 PM 51.8 °F - 50.0 °F 94% 29.93 in 4.0 mi North 10.4 mph - 0.03 in Rain Heavy Rain
5:53 PM 52.0 °F - 50.0 °F 93% 29.93 in 4.0 mi NNW 8.1 mph - 0.03 in Rain Heavy Rain
6:31 PM 51.1 °F - 50.0 °F 96% 29.94 in 7.0 mi NNW 5.8 mph - 0.03 in Rain Light Rain
6:43 PM 51.1 °F - 50.0 °F 96% 29.93 in 9.0 mi North 11.5 mph - 0.03 in Rain Light Rain
6:53 PM 51.1 °F - 48.9 °F 92% 29.94 in 10.0 mi North 11.5 mph - 0.03 in Rain Light Rain
7:29 PM 50.0 °F - 48.9 °F 96% 29.93 in 10.0 mi North 9.2 mph - 0.00 in   Overcast
7:53 PM 50.0 °F - 48.9 °F 96% 29.94 in 10.0 mi NNW 9.2 mph - 0.00 in   Overcast
8:04 PM 50.0 °F - 48.9 °F 96% 29.94 in 10.0 mi North 10.4 mph - N/A   Overcast
8:53 PM 50.0 °F - 48.9 °F 96% 29.96 in 10.0 mi NNW 8.1 mph - N/A   Overcast
9:27 PM 50.0 °F - 46.9 °F 89% 29.96 in 10.0 mi NNE 12.7 mph - 0.00 in   Overcast
9:50 PM 48.2 °F - 46.4 °F 93% 29.97 in 10.0 mi NNE 12.7 mph - 0.00 in   Overcast
9:53 PM 48.9 °F - 46.9 °F 93% 29.98 in 10.0 mi North 11.5 mph - 0.00 in   Overcast
10:53 PM 48.0 °F - 46.0 °F 93% 29.99 in 10.0 mi North 10.4 mph - N/A   Overcast
11:03 PM 48.0 °F - 45.0 °F 89% 29.98 in 10.0 mi North 10.4 mph - N/A   Overcast
11:51 PM 46.4 °F 41.9 °F 44.6 °F 93% 29.98 in 10.0 mi North 9.2 mph 19.6 mph N/A   Overcast
11:53 PM 46.9 °F - 44.1 °F 90% 29.99 in 10.0 mi North 9.2 mph 19.6 mph N/A   Overcast